Regional Weather Roundup
Issued by NWS State College, PA

Home | Current Version | Previous Version | Graphics & Text | Print | Product List | Glossary Off
Versions: 1 2 3 4 5 6 7 8 9 10 11 12 13 14 15 16 17 18 19 20 21 22 23 24 25 26 27 28 29 30 31 32 33 34 35 36 37 38 39 40 41 42 43 44 45 46 47 48 49 50

000
ASUS41 KCTP 271203
RWRCTP

REGIONAL WEATHER ROUNDUP
NATIONAL WEATHER SERVICE STATE COLLEGE PA
800 AM EDT FRI MAY 27 2016

Note: "fair" indicates few or no clouds below 12,000 feet with no
significant weather and/or obstructions to visibility.

* = STATION THAT DOES NOT REPORT PRECIPITATION /E.G. RAIN...SNOW...ETC/
    THUNDER OR FOG.

PAZ002>004-007>009-013>016-020>023-029>032-271300-
WESTERN PENNSYLVANIA

CITY           SKY/WX    TMP DP  RH WIND       PRES   REMARKS
ERIE           CLOUDY    73  66  78 S10       30.01S
MEADVILLE      PTSUNNY   66  64  93 SW7       30.06R
FRANKLIN*      SUNNY     66  63  88 SW10      30.09R
NEW CASTLE     FAIR      69  65  86 SW5       30.06F
BEAVER COUNTY  PTSUNNY   66  64  94 S3        30.07R
BUTLER*        MOSUNNY   68  63  83 SW3       30.10S
PITTSBURGH INT PTSUNNY   69  62  78 S5        30.07R
PITTSBURGH     CLOUDY    69  62  78 S9        30.07S
INDIANA*       SUNNY     70  66  88 SW7       30.12S
LATROBE        PTSUNNY   72  66  83 SW9       30.09S
WASHINGTON CO* SUNNY     66  63  88 S3        30.09S
$$

PAZ004>006-010>012-017>019-024>028-033>037-041-042-045-046-049>053-271300-
CENTRAL PENNSYLVANIA

CITY           SKY/WX    TMP DP  RH WIND       PRES   REMARKS
BRADFORD       PTSUNNY   67  63  87 VRB5      30.10R
DUBOIS         MOSUNNY   66  63  90 S3        30.08S
CLEARFIELD     PTSUNNY   63  61  93 CALM      30.09S FOG
JOHNSTOWN      SUNNY     68  60  75 SW8       30.12S
ALTOONA        MOSUNNY   68  63  84 S3        30.11R
STATE COLLEGE  MOSUNNY   68  64  88 CALM      30.11R
WILLIAMSPORT   PTSUNNY   67  61  81 CALM      30.06R
SELINSGROVE    SUNNY     72  65  78 CALM      30.07R
FT INDIANTOWN  MOSUNNY   72  66  82 E3        30.07R
CAPITAL CITY   SUNNY     74  65  73 CALM      30.06S
HARRISBURG     SUNNY     73  66  78 CALM      30.06S HAZE
YORK           SUNNY     74  66  76 CALM      30.07S
$$

PAZ038>040-043-044-047-048-054-055-060>062-067>071-271300-
EASTERN PENNSYLVANIA

CITY           SKY/WX    TMP DP  RH WIND       PRES   REMARKS
SCRANTON       CLOUDY    73  64  73 SW6       30.07S
MOUNT POCONO   CLOUDY    66  61  84 W6        30.11F
ALLENTOWN      MOSUNNY   71  67  87 CALM      30.06F FOG
QUAKERTOWN*    CLOUDY    73  64  73 SW7       30.08F
READING        SUNNY     75  65  70 S3        30.06S
LANCASTER      SUNNY     72  65  78 CALM      30.06F HAZE
COATESVILLE    SUNNY     72  64  78 VRB5      30.10F
POTTSTOWN      SUNNY     72  64  76 VRB5      30.08F
BLUE BELL      SUNNY     72  64  78 SW6       30.07F
DOYLESTOWN     SUNNY     71  63  75 VRB5      30.07S
WILLOW GROVE   NOT AVBL
NORTH PHILA    SUNNY     76  65  68 SW5       30.09R
PHILADELPHIA   MOSUNNY   73  64  73 SW9       30.08R
$$




USA.gov is the U.S. government's official web portal to all federal, state and local government web resources and services.